Time,TemperatureF,DewpointF,PressureIn,WindDirection,WindDirectionDegrees,WindSpeedMPH,WindSpeedGustMPH,Humidity,HourlyPrecipIn,Conditions,Clouds,dailyrainin,SoftwareType,DateUTC
2013-06-03 00:00:00,64.0,50.7,29.92,East,98,0.0,2.0,62,0.00,,---,0.00,VWS V14.01,2013-06-03 05:00:00,
2013-06-03 00:01:00,64.2,50.5,29.92,East,98,0.0,1.0,61,0.00,,---,0.00,VWS V14.01,2013-06-03 05:01:00,
2013-06-03 00:04:00,64.5,50.3,29.92,East,98,0.0,1.0,60,0.00,,---,0.00,VWS V14.01,2013-06-03 05:04:00,
2013-06-03 00:10:00,64.0,51.2,29.92,East,98,0.0,1.0,63,0.00,,---,0.00,VWS V14.01,2013-06-03 05:10:00,
2013-06-03 00:13:00,63.8,51.0,29.92,East,98,1.0,2.0,63,0.00,,---,0.00,VWS V14.01,2013-06-03 05:13:00,
2013-06-03 00:16:00,63.6,51.2,29.92,East,98,0.0,2.0,64,0.00,,---,0.00,VWS V14.01,2013-06-03 05:16:00,
2013-06-03 00:19:00,63.5,50.7,29.92,East,98,0.0,2.0,63,0.00,,---,0.00,VWS V14.01,2013-06-03 05:19:00,
2013-06-03 00:22:00,63.6,50.4,29.92,East,98,0.0,2.0,62,0.00,,---,0.00,VWS V14.01,2013-06-03 05:22:00,
2013-06-03 00:25:00,63.6,50.8,29.92,East,98,0.0,2.0,63,0.00,,---,0.00,VWS V14.01,2013-06-03 05:25:00,
2013-06-03 00:28:00,63.5,50.3,29.92,East,98,0.0,2.0,62,0.00,,---,0.00,VWS V14.01,2013-06-03 05:28:00,
2013-06-03 00:30:00,63.5,50.7,29.92,East,98,0.0,2.0,63,0.00,,---,0.00,VWS V14.01,2013-06-03 05:30:00,
2013-06-03 00:31:00,63.4,51.0,29.92,East,98,0.0,1.0,64,0.00,,---,0.00,VWS V14.01,2013-06-03 05:31:00,
2013-06-03 00:34:00,62.9,51.4,29.92,East,98,0.0,1.0,66,0.00,,---,0.00,VWS V14.01,2013-06-03 05:34:00,
2013-06-03 00:41:00,61.8,51.1,29.91,East,98,0.0,2.0,68,0.00,,---,0.00,VWS V14.01,2013-06-03 05:41:00,
2013-06-03 00:44:00,61.5,50.8,29.91,East,98,0.0,2.0,68,0.00,,---,0.00,VWS V14.01,2013-06-03 05:44:00,
2013-06-03 00:47:00,61.3,51.1,29.91,East,98,0.0,2.0,69,0.00,,---,0.00,VWS V14.01,2013-06-03 05:47:00,
2013-06-03 00:50:00,61.2,51.3,29.91,East,98,0.0,2.0,70,0.00,,---,0.00,VWS V14.01,2013-06-03 05:50:00,
2013-06-03 00:53:00,61.0,51.2,29.92,East,98,0.0,2.0,70,0.00,,---,0.00,VWS V14.01,2013-06-03 05:53:00,
2013-06-03 00:56:00,61.0,51.2,29.92,East,98,0.0,2.0,70,0.00,,---,0.00,VWS V14.01,2013-06-03 05:56:00,
2013-06-03 00:59:00,60.9,51.1,29.92,East,98,0.0,2.0,70,0.00,,---,0.00,VWS V14.01,2013-06-03 05:59:00,
2013-06-03 01:00:00,60.9,51.5,29.92,East,98,0.0,2.0,71,0.00,,---,0.00,VWS V14.01,2013-06-03 06:00:00,
2013-06-03 01:02:00,61.0,51.2,29.92,East,98,0.0,0.0,70,0.00,,---,0.00,VWS V14.01,2013-06-03 06:02:00,
2013-06-03 01:05:00,61.2,51.3,29.92,East,98,0.0,0.0,70,0.00,,---,0.00,VWS V14.01,2013-06-03 06:05:00,
2013-06-03 01:08:00,61.2,51.3,29.92,East,98,0.0,0.0,70,0.00,,---,0.00,VWS V14.01,2013-06-03 06:08:00,
2013-06-03 01:11:00,61.1,51.6,29.92,East,98,0.0,0.0,71,0.00,,---,0.00,VWS V14.01,2013-06-03 06:11:00,
2013-06-03 01:14:00,61.0,51.2,29.92,East,98,0.0,0.0,70,0.00,,---,0.00,VWS V14.01,2013-06-03 06:14:00,
2013-06-03 01:17:00,60.9,51.1,29.92,East,98,0.0,0.0,70,0.00,,---,0.00,VWS V14.01,2013-06-03 06:17:00,
2013-06-03 01:20:00,60.9,51.1,29.92,East,98,0.0,0.0,70,0.00,,---,0.00,VWS V14.01,2013-06-03 06:20:00,
2013-06-03 01:23:00,60.9,51.1,29.92,East,98,0.0,0.0,70,0.00,,---,0.00,VWS V14.01,2013-06-03 06:23:00,
2013-06-03 01:26:00,61.0,51.2,29.92,East,98,0.0,0.0,70,0.00,,---,0.00,VWS V14.01,2013-06-03 06:26:00,
2013-06-03 01:29:00,61.0,51.5,29.92,East,98,0.0,0.0,71,0.00,,---,0.00,VWS V14.01,2013-06-03 06:29:00,
2013-06-03 01:30:00,61.0,51.5,29.92,East,98,0.0,0.0,71,0.00,,---,0.00,VWS V14.01,2013-06-03 06:30:00,
2013-06-03 01:32:00,61.0,51.5,29.92,East,98,0.0,0.0,71,0.00,,---,0.00,VWS V14.01,2013-06-03 06:32:00,
2013-06-03 01:35:00,61.0,52.3,29.92,East,98,0.0,0.0,73,0.00,,---,0.00,VWS V14.01,2013-06-03 06:35:00,
2013-06-03 01:38:00,60.9,52.2,29.92,East,98,0.0,0.0,73,0.00,,---,0.00,VWS V14.01,2013-06-03 06:38:00,
2013-06-03 01:41:00,60.7,52.4,29.92,East,98,0.0,1.0,74,0.00,,---,0.00,VWS V14.01,2013-06-03 06:41:00,
2013-06-03 01:44:00,60.6,51.9,29.92,East,98,0.0,1.0,73,0.00,,---,0.00,VWS V14.01,2013-06-03 06:44:00,
2013-06-03 01:50:00,60.4,52.1,29.92,East,98,0.0,1.0,74,0.00,,---,0.00,VWS V14.01,2013-06-03 06:50:00,
2013-06-03 01:53:00,60.3,52.0,29.93,East,98,0.0,1.0,74,0.00,,---,0.00,VWS V14.01,2013-06-03 06:53:00,
2013-06-03 02:11:00,60.0,52.1,29.92,East,98,0.0,1.0,75,0.00,,---,0.00,VWS V14.01,2013-06-03 07:11:00,
2013-06-03 02:17:00,59.9,52.0,29.92,East,98,0.0,1.0,75,0.00,,---,0.00,VWS V14.01,2013-06-03 07:17:00,
2013-06-03 02:20:00,59.9,52.3,29.92,East,98,0.0,1.0,76,0.00,,---,0.00,VWS V14.01,2013-06-03 07:20:00,
2013-06-03 02:23:00,60.0,52.8,29.92,East,98,0.0,1.0,77,0.00,,---,0.00,VWS V14.01,2013-06-03 07:23:00,
2013-06-03 02:30:00,60.1,52.2,29.93,East,98,0.0,1.0,75,0.00,,---,0.00,VWS V14.01,2013-06-03 07:30:00,
2013-06-03 02:32:00,60.2,52.6,29.93,East,98,0.0,0.0,76,0.00,,---,0.00,VWS V14.01,2013-06-03 07:32:00,
2013-06-03 02:35:00,60.2,52.6,29.93,East,98,0.0,0.0,76,0.00,,---,0.00,VWS V14.01,2013-06-03 07:35:00,
2013-06-03 02:38:00,60.1,52.5,29.93,East,98,1.0,2.0,76,0.00,,---,0.00,VWS V14.01,2013-06-03 07:38:00,
2013-06-03 02:46:00,60.5,52.2,29.92,East,98,0.0,1.0,74,0.00,,---,0.00,VWS V14.01,2013-06-03 07:46:00,
2013-06-03 02:51:00,60.0,52.1,29.93,East,98,0.0,2.0,75,0.00,,---,0.00,VWS V14.01,2013-06-03 07:51:00,
2013-06-03 02:54:00,60.1,52.2,29.93,East,98,0.0,2.0,75,0.00,,---,0.00,VWS V14.01,2013-06-03 07:54:00,
2013-06-03 02:55:00,60.3,52.3,29.93,East,98,0.0,1.0,75,0.00,,---,0.00,VWS V14.01,2013-06-03 07:55:00,
2013-06-03 02:58:00,60.2,52.3,29.93,East,98,0.0,1.0,75,0.00,,---,0.00,VWS V14.01,2013-06-03 07:58:00,
2013-06-03 03:00:00,60.3,52.3,29.93,East,98,0.0,2.0,75,0.00,,---,0.00,VWS V14.01,2013-06-03 08:00:00,
2013-06-03 03:03:00,60.4,52.5,29.93,East,98,0.0,0.0,75,0.00,,---,0.00,VWS V14.01,2013-06-03 08:03:00,
2013-06-03 03:04:00,60.2,52.3,29.93,East,98,0.0,1.0,75,0.00,,---,0.00,VWS V14.01,2013-06-03 08:04:00,
2013-06-03 03:07:00,60.0,52.1,29.93,East,98,0.0,1.0,75,0.00,,---,0.00,VWS V14.01,2013-06-03 08:07:00,
2013-06-03 03:12:00,60.7,52.4,29.92,East,98,0.0,0.0,74,0.00,,---,0.00,VWS V14.01,2013-06-03 08:12:00,
2013-06-03 03:13:00,59.9,52.0,29.93,East,98,0.0,1.0,75,0.00,,---,0.00,VWS V14.01,2013-06-03 08:13:00,
2013-06-03 03:18:00,60.9,52.2,29.92,East,98,0.0,0.0,73,0.00,,---,0.00,VWS V14.01,2013-06-03 08:18:00,
2013-06-03 03:21:00,61.0,52.3,29.93,East,98,0.0,0.0,73,0.00,,---,0.00,VWS V14.01,2013-06-03 08:21:00,
2013-06-03 03:24:00,61.0,52.3,29.93,East,98,0.0,0.0,73,0.00,,---,0.00,VWS V14.01,2013-06-03 08:24:00,
2013-06-03 03:25:00,60.0,52.4,29.92,East,98,0.0,1.0,76,0.00,,---,0.00,VWS V14.01,2013-06-03 08:25:00,
2013-06-03 03:28:00,60.1,52.2,29.93,East,98,0.0,1.0,75,0.00,,---,0.00,VWS V14.01,2013-06-03 08:28:00,
2013-06-03 03:30:00,61.0,53.4,29.93,East,98,0.0,0.0,76,0.00,,---,0.00,VWS V14.01,2013-06-03 08:30:00,
2013-06-03 03:40:00,60.0,52.4,29.92,East,98,0.0,2.0,76,0.00,,---,0.00,VWS V14.01,2013-06-03 08:40:00,
2013-06-03 03:42:00,61.2,52.9,29.93,East,98,0.0,0.0,74,0.00,,---,0.00,VWS V14.01,2013-06-03 08:42:00,
2013-06-03 03:46:00,60.0,52.4,29.93,East,98,0.0,2.0,76,0.00,,---,0.00,VWS V14.01,2013-06-03 08:46:00,
2013-06-03 03:55:00,60.2,52.3,29.93,East,98,0.0,2.0,75,0.00,,---,0.00,VWS V14.01,2013-06-03 08:55:00,
2013-06-03 03:58:00,60.3,52.3,29.93,East,98,0.0,0.0,75,0.00,,---,0.00,VWS V14.01,2013-06-03 08:58:00,
2013-06-03 04:00:00,61.1,53.5,29.94,East,98,1.0,2.0,76,0.00,,---,0.00,VWS V14.01,2013-06-03 09:00:00,
2013-06-03 04:04:00,60.4,52.1,29.93,East,98,0.0,0.0,74,0.00,,---,0.00,VWS V14.01,2013-06-03 09:04:00,
2013-06-03 04:09:00,60.7,53.1,29.94,East,98,0.0,2.0,76,0.00,,---,0.00,VWS V14.01,2013-06-03 09:09:00,
2013-06-03 04:13:00,60.8,52.5,29.92,East,98,0.0,0.0,74,0.00,,---,0.00,VWS V14.01,2013-06-03 09:13:00,
2013-06-03 04:26:00,61.0,53.0,29.93,East,98,0.0,0.0,75,0.00,,---,0.00,VWS V14.01,2013-06-03 09:26:00,
2013-06-03 04:29:00,61.0,53.4,29.93,East,98,0.0,0.0,76,0.00,,---,0.00,VWS V14.01,2013-06-03 09:29:00,
2013-06-03 04:32:00,61.0,52.7,29.93,East,98,0.0,0.0,74,0.00,,---,0.00,VWS V14.01,2013-06-03 09:32:00,
2013-06-03 04:35:00,61.1,52.4,29.93,East,98,0.0,0.0,73,0.00,,---,0.00,VWS V14.01,2013-06-03 09:35:00,
2013-06-03 04:44:00,61.3,52.6,29.94,East,98,0.0,0.0,73,0.00,,---,0.00,VWS V14.01,2013-06-03 09:44:00,
2013-06-03 04:47:00,61.4,53.4,29.94,East,98,0.0,0.0,75,0.00,,---,0.00,VWS V14.01,2013-06-03 09:47:00,
2013-06-03 04:50:00,61.4,53.4,29.94,East,98,0.0,0.0,75,0.00,,---,0.00,VWS V14.01,2013-06-03 09:50:00,
2013-06-03 04:59:00,61.1,53.5,29.94,East,98,1.0,2.0,76,0.00,,---,0.00,VWS V14.01,2013-06-03 09:59:00,
2013-06-03 05:02:00,60.9,53.3,29.94,East,98,0.0,2.0,76,0.00,,---,0.00,VWS V14.01,2013-06-03 10:02:00,
2013-06-03 05:05:00,60.7,53.1,29.94,East,98,1.0,2.0,76,0.00,,---,0.00,VWS V14.01,2013-06-03 10:05:00,
2013-06-03 05:13:00,65.6,54.0,29.91,SE,134,5.0,8.0,66,0.00,,---,0.00,VWS V14.01,2013-06-03 10:13:00,
2013-06-03 05:14:00,60.5,53.3,29.93,East,98,0.0,2.0,77,0.00,,---,0.00,VWS V14.01,2013-06-03 10:14:00,
2013-06-03 05:17:00,60.5,53.3,29.93,East,98,0.0,2.0,77,0.00,,---,0.00,VWS V14.01,2013-06-03 10:17:00,
2013-06-03 05:20:00,60.5,53.3,29.93,East,98,0.0,2.0,77,0.00,,---,0.00,VWS V14.01,2013-06-03 10:20:00,
2013-06-03 05:26:00,60.6,53.4,29.93,East,98,0.0,2.0,77,0.00,,---,0.00,VWS V14.01,2013-06-03 10:26:00,
2013-06-03 05:28:00,60.7,53.5,29.93,East,98,1.0,2.0,77,0.00,,---,0.00,VWS V14.01,2013-06-03 10:28:00,
2013-06-03 05:29:00,60.8,53.2,29.93,ESE,109,2.0,3.0,76,0.00,,---,0.00,VWS V14.01,2013-06-03 10:29:00,
2013-06-03 05:35:00,61.6,53.6,29.93,ESE,119,0.0,3.0,75,0.00,,---,0.00,VWS V14.01,2013-06-03 10:35:00,
2013-06-03 05:38:00,62.0,53.6,29.93,SE,146,2.0,4.0,74,0.00,,---,0.00,VWS V14.01,2013-06-03 10:38:00,
2013-06-03 05:41:00,62.5,53.7,29.93,SE,138,3.0,4.0,73,0.00,,---,0.00,VWS V14.01,2013-06-03 10:41:00,
2013-06-03 05:44:00,63.2,54.0,29.93,SSE,151,2.0,6.0,72,0.00,,---,0.00,VWS V14.01,2013-06-03 10:44:00,
2013-06-03 05:47:00,63.9,53.9,29.92,SSE,155,5.0,7.0,70,0.00,,---,0.00,VWS V14.01,2013-06-03 10:47:00,
2013-06-03 05:53:00,64.9,54.1,29.92,SE,136,3.0,7.0,68,0.00,,---,0.00,VWS V14.01,2013-06-03 10:53:00,
2013-06-03 05:59:00,65.2,54.0,29.92,ESE,123,3.0,4.0,67,0.00,,---,0.00,VWS V14.01,2013-06-03 10:59:00,
2013-06-03 06:05:00,65.4,53.8,29.92,SSE,148,6.0,6.0,66,0.00,,---,0.00,VWS V14.01,2013-06-03 11:05:00,
2013-06-03 06:08:00,65.5,53.8,29.92,SE,142,3.0,8.0,66,0.00,,---,0.00,VWS V14.01,2013-06-03 11:08:00,
2013-06-03 06:14:00,65.7,54.0,29.91,SE,146,7.0,8.0,66,0.00,,---,0.00,VWS V14.01,2013-06-03 11:14:00,
2013-06-03 06:18:00,65.7,54.0,29.92,SSE,148,3.0,8.0,66,0.00,,---,0.00,VWS V14.01,2013-06-03 11:18:00,
2013-06-03 06:24:00,65.7,54.0,29.91,SE,133,7.0,8.0,66,0.00,,---,0.00,VWS V14.01,2013-06-03 11:24:00,
2013-06-03 06:27:00,65.8,54.1,29.91,SE,142,5.0,8.0,66,0.00,,---,0.00,VWS V14.01,2013-06-03 11:27:00,
2013-06-03 06:30:00,65.7,54.0,29.91,SSE,148,3.0,7.0,66,0.00,,---,0.00,VWS V14.01,2013-06-03 11:30:00,
2013-06-03 06:33:00,65.7,54.0,29.91,SE,137,4.0,8.0,66,0.00,,---,0.00,VWS V14.01,2013-06-03 11:33:00,
2013-06-03 06:36:00,65.6,54.4,29.91,SE,138,8.0,8.0,67,0.00,,---,0.00,VWS V14.01,2013-06-03 11:36:00,
2013-06-03 06:42:00,65.7,54.5,29.91,SE,136,6.0,10.0,67,0.00,,---,0.00,VWS V14.01,2013-06-03 11:42:00,
2013-06-03 06:45:00,65.7,54.5,29.91,SSE,148,4.0,10.0,67,0.00,,---,0.00,VWS V14.01,2013-06-03 11:45:00,
2013-06-03 06:48:00,65.6,54.4,29.91,SE,130,6.0,10.0,67,0.00,,---,0.00,VWS V14.01,2013-06-03 11:48:00,
2013-06-03 06:51:00,65.6,54.4,29.91,SE,127,6.0,10.0,67,0.00,,---,0.00,VWS V14.01,2013-06-03 11:51:00,
2013-06-03 06:54:00,65.6,54.4,29.91,SE,138,8.0,10.0,67,0.00,,---,0.00,VWS V14.01,2013-06-03 11:54:00,
2013-06-03 06:58:00,65.6,54.4,29.92,SE,146,7.0,10.0,67,0.00,,---,0.00,VWS V14.01,2013-06-03 11:58:00,
2013-06-03 07:00:00,65.6,54.4,29.91,SE,145,3.0,7.0,67,0.00,,---,0.00,VWS V14.01,2013-06-03 12:00:00,
2013-06-03 07:03:00,65.6,54.8,29.91,SE,127,3.0,8.0,68,0.00,,---,0.00,VWS V14.01,2013-06-03 12:03:00,
2013-06-03 07:06:00,65.7,54.9,29.91,SE,135,5.0,8.0,68,0.00,,---,0.00,VWS V14.01,2013-06-03 12:06:00,
2013-06-03 07:09:00,65.8,55.0,29.91,SE,125,5.0,8.0,68,0.00,,---,0.00,VWS V14.01,2013-06-03 12:09:00,
2013-06-03 07:15:00,65.9,55.0,29.91,SE,132,10.0,10.0,68,0.00,,---,0.00,VWS V14.01,2013-06-03 12:15:00,
2013-06-03 07:21:00,66.2,54.9,29.90,SE,144,6.0,13.0,67,0.00,,---,0.00,VWS V14.01,2013-06-03 12:21:00,
2013-06-03 07:24:00,66.3,55.0,29.89,ESE,120,10.0,13.0,67,0.00,,---,0.00,VWS V14.01,2013-06-03 12:24:00,
2013-06-03 07:27:00,66.4,55.1,29.90,SE,132,11.0,13.0,67,0.00,,---,0.00,VWS V14.01,2013-06-03 12:27:00,
2013-06-03 07:28:00,66.4,55.1,29.90,SE,142,9.0,13.0,67,0.00,,---,0.00,VWS V14.01,2013-06-03 12:28:00,
2013-06-03 07:30:00,66.5,55.2,29.90,SE,139,11.0,11.0,67,0.00,,---,0.00,VWS V14.01,2013-06-03 12:30:00,
2013-06-03 07:33:00,66.5,55.2,29.90,SSE,148,7.0,14.0,67,0.00,,---,0.00,VWS V14.01,2013-06-03 12:33:00,
2013-06-03 07:36:00,66.6,55.3,29.90,SSE,157,6.0,14.0,67,0.00,,---,0.00,VWS V14.01,2013-06-03 12:36:00,
2013-06-03 07:39:00,66.6,55.3,29.90,SE,128,8.0,14.0,67,0.00,,---,0.00,VWS V14.01,2013-06-03 12:39:00,
2013-06-03 07:42:00,66.7,55.4,29.91,SE,127,8.0,14.0,67,0.00,,---,0.00,VWS V14.01,2013-06-03 12:42:00,
2013-06-03 07:45:00,66.7,55.4,29.91,SE,132,7.0,14.0,67,0.00,,---,0.00,VWS V14.01,2013-06-03 12:45:00,
2013-06-03 07:54:00,67.0,55.7,29.91,SE,137,8.0,14.0,67,0.00,,---,0.00,VWS V14.01,2013-06-03 12:54:00,
2013-06-03 07:57:00,67.1,55.8,29.91,ESE,119,9.0,14.0,67,0.00,,---,0.00,VWS V14.01,2013-06-03 12:57:00,
2013-06-03 08:00:00,67.1,55.8,29.91,SE,145,9.0,11.0,67,0.00,,---,0.00,VWS V14.01,2013-06-03 13:00:00,
2013-06-03 08:03:00,67.2,55.9,29.91,SSE,153,7.0,11.0,67,0.00,,---,0.00,VWS V14.01,2013-06-03 13:03:00,
2013-06-03 08:07:00,67.3,56.0,29.91,ESE,121,9.0,11.0,67,0.00,,---,0.00,VWS V14.01,2013-06-03 13:07:00,
2013-06-03 08:10:00,67.4,56.1,29.91,SE,143,9.0,12.0,67,0.00,,---,0.00,VWS V14.01,2013-06-03 13:10:00,
2013-06-03 08:16:00,67.7,56.0,29.91,ESE,114,7.0,12.0,66,0.00,,---,0.00,VWS V14.01,2013-06-03 13:16:00,
2013-06-03 08:22:00,68.1,56.3,29.91,SE,139,6.0,12.0,66,0.00,,---,0.00,VWS V14.01,2013-06-03 13:22:00,
2013-06-03 08:25:00,68.4,56.6,29.91,SSE,165,6.0,12.0,66,0.00,,---,0.00,VWS V14.01,2013-06-03 13:25:00,
2013-06-03 08:28:00,68.8,57.0,29.91,SE,128,5.0,12.0,66,0.00,,---,0.00,VWS V14.01,2013-06-03 13:28:00,
2013-06-03 08:31:00,69.0,56.3,29.91,SSE,161,8.0,10.0,64,0.00,,---,0.00,VWS V14.01,2013-06-03 13:31:00,
2013-06-03 08:34:00,69.1,56.4,29.91,SE,133,7.0,11.0,64,0.00,,---,0.00,VWS V14.01,2013-06-03 13:34:00,
2013-06-03 08:37:00,69.2,56.5,29.91,SE,134,4.0,11.0,64,0.00,,---,0.00,VWS V14.01,2013-06-03 13:37:00,
2013-06-03 08:40:00,69.5,56.4,29.91,SSE,151,8.0,11.0,63,0.00,,---,0.00,VWS V14.01,2013-06-03 13:40:00,
2013-06-03 08:43:00,69.8,56.7,29.91,SSE,165,8.0,11.0,63,0.00,,---,0.00,VWS V14.01,2013-06-03 13:43:00,
2013-06-03 08:46:00,69.9,56.8,29.91,SSE,148,8.0,11.0,63,0.00,,---,0.00,VWS V14.01,2013-06-03 13:46:00,
2013-06-03 08:49:00,70.1,56.5,29.91,SE,136,6.0,11.0,62,0.00,,---,0.00,VWS V14.01,2013-06-03 13:49:00,
2013-06-03 08:52:00,70.5,56.9,29.91,SE,142,7.0,11.0,62,0.00,,---,0.00,VWS V14.01,2013-06-03 13:52:00,
2013-06-03 08:58:00,71.4,56.8,29.91,SE,141,5.0,11.0,60,0.00,,---,0.00,VWS V14.01,2013-06-03 13:58:00,
2013-06-03 09:01:00,71.9,56.8,29.91,South,173,4.0,9.0,59,0.00,,---,0.00,VWS V14.01,2013-06-03 14:01:00,
2013-06-03 09:07:00,72.8,56.7,29.91,SE,142,7.0,11.0,57,0.00,,---,0.00,VWS V14.01,2013-06-03 14:07:00,
2013-06-03 09:10:00,73.3,57.2,29.91,SSE,150,6.0,11.0,57,0.00,,---,0.00,VWS V14.01,2013-06-03 14:10:00,
2013-06-03 09:13:00,73.8,57.1,29.90,SSE,161,6.0,11.0,56,0.00,,---,0.00,VWS V14.01,2013-06-03 14:13:00,
2013-06-03 09:16:00,74.2,57.0,29.90,South,170,9.0,11.0,55,0.00,,---,0.00,VWS V14.01,2013-06-03 14:16:00,
2013-06-03 09:19:00,74.2,55.5,29.90,SSE,150,8.0,15.0,52,0.00,,---,0.00,VWS V14.01,2013-06-03 14:19:00,
2013-06-03 09:22:00,73.7,55.5,29.89,SSE,152,15.0,16.0,53,0.00,,---,0.00,VWS V14.01,2013-06-03 14:22:00,
2013-06-03 09:25:00,73.5,55.9,29.89,South,180,10.0,16.0,54,0.00,,---,0.00,VWS V14.01,2013-06-03 14:25:00,
2013-06-03 09:28:00,73.6,56.0,29.89,SSE,161,10.0,16.0,54,0.00,,---,0.00,VWS V14.01,2013-06-03 14:28:00,
2013-06-03 09:34:00,74.3,57.1,29.89,SSE,153,12.0,16.0,55,0.00,,---,0.00,VWS V14.01,2013-06-03 14:34:00,
2013-06-03 09:37:00,74.9,57.2,29.88,South,172,8.0,16.0,54,0.00,,---,0.00,VWS V14.01,2013-06-03 14:37:00,
2013-06-03 09:40:00,75.2,57.4,29.89,SSE,163,7.0,16.0,54,0.00,,---,0.00,VWS V14.01,2013-06-03 14:40:00,
2013-06-03 09:43:00,75.4,57.1,29.88,SE,130,7.0,16.0,53,0.00,,---,0.00,VWS V14.01,2013-06-03 14:43:00,
2013-06-03 09:49:00,76.1,57.2,29.89,SE,146,7.0,16.0,52,0.00,,---,0.00,VWS V14.01,2013-06-03 14:49:00,
2013-06-03 09:52:00,76.5,57.0,29.88,SSE,167,6.0,16.0,51,0.00,,---,0.00,VWS V14.01,2013-06-03 14:52:00,
2013-06-03 09:55:00,77.0,57.5,29.88,SSE,155,11.0,16.0,51,0.00,,---,0.00,VWS V14.01,2013-06-03 14:55:00,
2013-06-03 09:58:00,77.4,57.3,29.88,SSW,205,10.0,16.0,50,0.00,,---,0.00,VWS V14.01,2013-06-03 14:58:00,
2013-06-03 10:01:00,77.8,57.1,29.88,SE,144,9.0,12.0,49,0.00,,---,0.00,VWS V14.01,2013-06-03 15:01:00,
2013-06-03 10:05:00,78.2,56.9,29.88,SSE,167,10.0,13.0,48,0.00,,---,0.00,VWS V14.01,2013-06-03 15:05:00,
2013-06-03 10:08:00,78.5,57.2,29.88,South,182,6.0,14.0,48,0.00,,---,0.00,VWS V14.01,2013-06-03 15:08:00,
2013-06-03 10:11:00,78.7,56.8,29.88,SSW,206,8.0,15.0,47,0.00,,---,0.00,VWS V14.01,2013-06-03 15:11:00,
2013-06-03 10:14:00,78.8,57.5,29.88,SSW,198,7.0,15.0,48,0.00,,---,0.00,VWS V14.01,2013-06-03 15:14:00,
2013-06-03 10:17:00,78.8,56.9,29.88,SSE,158,10.0,15.0,47,0.00,,---,0.00,VWS V14.01,2013-06-03 15:17:00,
2013-06-03 10:20:00,79.3,57.9,29.88,SSE,153,7.0,15.0,48,0.00,,---,0.00,VWS V14.01,2013-06-03 15:20:00,
2013-06-03 10:26:00,80.4,57.1,29.88,South,171,6.0,15.0,45,0.00,,---,0.00,VWS V14.01,2013-06-03 15:26:00,
2013-06-03 10:28:00,80.4,57.1,29.88,South,171,10.0,15.0,45,0.00,,---,0.00,VWS V14.01,2013-06-03 15:28:00,
2013-06-03 10:32:00,80.6,57.9,29.88,SSE,155,7.0,12.0,46,0.00,,---,0.00,VWS V14.01,2013-06-03 15:32:00,
2013-06-03 10:35:00,80.6,57.9,29.88,SSW,193,6.0,14.0,46,0.00,,---,0.00,VWS V14.01,2013-06-03 15:35:00,
2013-06-03 10:38:00,81.0,57.1,29.88,South,169,9.0,14.0,44,0.00,,---,0.00,VWS V14.01,2013-06-03 15:38:00,
2013-06-03 10:44:00,81.1,57.8,29.88,South,185,9.0,14.0,45,0.00,,---,0.00,VWS V14.01,2013-06-03 15:44:00,
2013-06-03 10:47:00,81.0,57.1,29.88,SSE,151,8.0,14.0,44,0.00,,---,0.00,VWS V14.01,2013-06-03 15:47:00,
2013-06-03 10:53:00,81.1,58.4,29.87,South,187,13.0,14.0,46,0.00,,---,0.00,VWS V14.01,2013-06-03 15:53:00,
2013-06-03 10:58:00,81.5,58.1,29.87,SSE,153,12.0,15.0,45,0.00,,---,0.00,VWS V14.01,2013-06-03 15:58:00,
2013-06-03 10:59:00,81.5,58.1,29.87,SSE,162,9.0,13.0,45,0.00,,---,0.00,VWS V14.01,2013-06-03 15:59:00,
2013-06-03 11:05:00,81.5,58.1,29.87,South,184,8.0,15.0,45,0.00,,---,0.00,VWS V14.01,2013-06-03 16:05:00,
2013-06-03 11:08:00,81.7,58.3,29.87,SSE,151,6.0,15.0,45,0.00,,---,0.00,VWS V14.01,2013-06-03 16:08:00,
2013-06-03 11:11:00,82.1,58.7,29.87,SE,146,6.0,15.0,45,0.00,,---,0.00,VWS V14.01,2013-06-03 16:11:00,
2013-06-03 11:17:00,82.8,59.3,29.87,South,178,8.0,15.0,45,0.00,,---,0.00,VWS V14.01,2013-06-03 16:17:00,
2013-06-03 11:20:00,83.4,59.8,29.87,SSE,165,8.0,15.0,45,0.00,,---,0.00,VWS V14.01,2013-06-03 16:20:00,
2013-06-03 11:23:00,83.8,59.6,29.86,South,174,5.0,15.0,44,0.00,,---,0.00,VWS V14.01,2013-06-03 16:23:00,
2013-06-03 11:26:00,83.7,58.8,29.86,SSE,154,8.0,15.0,43,0.00,,---,0.00,VWS V14.01,2013-06-03 16:26:00,
2013-06-03 11:32:00,83.9,57.7,29.86,South,178,7.0,14.0,41,0.00,,---,0.00,VWS V14.01,2013-06-03 16:32:00,
2013-06-03 11:35:00,84.4,58.2,29.86,SE,129,9.0,14.0,41,0.00,,---,0.00,VWS V14.01,2013-06-03 16:35:00,
2013-06-03 11:38:00,84.9,57.9,29.86,SSE,163,10.0,14.0,40,0.00,,---,0.00,VWS V14.01,2013-06-03 16:38:00,
2013-06-03 11:41:00,85.5,58.5,29.86,SSW,198,11.0,14.0,40,0.00,,---,0.00,VWS V14.01,2013-06-03 16:41:00,
2013-06-03 11:44:00,85.3,57.6,29.86,SSE,152,12.0,15.0,39,0.00,,---,0.00,VWS V14.01,2013-06-03 16:44:00,
2013-06-03 11:47:00,85.3,57.6,29.86,South,174,10.0,15.0,39,0.00,,---,0.00,VWS V14.01,2013-06-03 16:47:00,
2013-06-03 11:50:00,85.5,57.7,29.86,South,182,8.0,15.0,39,0.00,,---,0.00,VWS V14.01,2013-06-03 16:50:00,
2013-06-03 11:53:00,85.2,57.5,29.86,South,190,9.0,15.0,39,0.00,,---,0.00,VWS V14.01,2013-06-03 16:53:00,
2013-06-03 11:56:00,85.2,58.9,29.86,South,188,8.0,15.0,41,0.00,,---,0.00,VWS V14.01,2013-06-03 16:56:00,
2013-06-03 12:00:00,85.7,58.6,29.86,SSE,157,10.0,12.0,40,0.00,,---,0.00,VWS V14.01,2013-06-03 17:00:00,
2013-06-03 12:06:00,86.3,57.7,29.86,South,184,5.0,12.0,38,0.00,,---,0.00,VWS V14.01,2013-06-03 17:06:00,
2013-06-03 12:12:00,86.5,57.9,29.86,SSW,205,8.0,15.0,38,0.00,,---,0.00,VWS V14.01,2013-06-03 17:12:00,
2013-06-03 12:15:00,86.4,57.8,29.85,SSW,192,4.0,15.0,38,0.00,,---,0.00,VWS V14.01,2013-06-03 17:15:00,
2013-06-03 12:18:00,86.7,58.1,29.85,SSE,161,8.0,15.0,38,0.00,,---,0.00,VWS V14.01,2013-06-03 17:18:00,
2013-06-03 12:21:00,86.5,57.9,29.85,SE,132,8.0,15.0,38,0.00,,---,0.00,VWS V14.01,2013-06-03 17:21:00,
2013-06-03 12:24:00,86.6,56.5,29.85,SSW,195,5.0,15.0,36,0.00,,---,0.00,VWS V14.01,2013-06-03 17:24:00,
2013-06-03 12:27:00,86.5,57.9,29.85,ESE,117,9.0,15.0,38,0.00,,---,0.00,VWS V14.01,2013-06-03 17:27:00,
2013-06-03 12:28:00,86.8,56.7,29.85,South,189,7.0,15.0,36,0.00,,---,0.00,VWS V14.01,2013-06-03 17:28:00,
2013-06-03 12:33:00,87.0,57.6,29.85,SSW,205,11.0,12.0,37,0.00,,---,0.00,VWS V14.01,2013-06-03 17:33:00,
2013-06-03 12:36:00,86.9,57.5,29.85,SW,222,6.0,15.0,37,0.00,,---,0.00,VWS V14.01,2013-06-03 17:36:00,
2013-06-03 12:42:00,87.5,57.3,29.84,SSW,202,6.0,15.0,36,0.00,,---,0.00,VWS V14.01,2013-06-03 17:42:00,
2013-06-03 12:45:00,88.0,56.9,29.85,South,186,6.0,15.0,35,0.00,,---,0.00,VWS V14.01,2013-06-03 17:45:00,
2013-06-03 12:48:00,88.0,56.9,29.84,SSE,159,4.0,15.0,35,0.00,,---,0.00,VWS V14.01,2013-06-03 17:48:00,
2013-06-03 12:51:00,88.2,57.1,29.84,SSE,153,13.0,15.0,35,0.00,,---,0.00,VWS V14.01,2013-06-03 17:51:00,
2013-06-03 12:54:00,88.2,57.1,29.84,SSE,163,6.0,16.0,35,0.00,,---,0.00,VWS V14.01,2013-06-03 17:54:00,
2013-06-03 12:57:00,88.4,56.5,29.84,SSW,205,7.0,16.0,34,0.00,,---,0.00,VWS V14.01,2013-06-03 17:57:00,
2013-06-03 12:58:00,88.5,57.4,29.84,South,191,7.0,16.0,35,0.00,,---,0.00,VWS V14.01,2013-06-03 17:58:00,
2013-06-03 13:03:00,88.6,56.7,29.83,SSW,202,9.0,13.0,34,0.00,,---,0.00,VWS V14.01,2013-06-03 18:03:00,
2013-06-03 13:09:00,89.6,57.5,29.83,SSE,151,8.0,16.0,34,0.00,,---,0.00,VWS V14.01,2013-06-03 18:09:00,
2013-06-03 13:15:00,89.8,56.0,29.83,SSE,168,8.0,16.0,32,0.00,,---,0.00,VWS V14.01,2013-06-03 18:15:00,
2013-06-03 13:18:00,89.6,55.9,29.83,SSE,161,6.0,16.0,32,0.00,,---,0.00,VWS V14.01,2013-06-03 18:18:00,
2013-06-03 13:21:00,90.0,57.1,29.83,South,175,8.0,16.0,33,0.00,,---,0.00,VWS V14.01,2013-06-03 18:21:00,
2013-06-03 13:24:00,90.5,55.8,29.83,SE,134,9.0,16.0,31,0.00,,---,0.00,VWS V14.01,2013-06-03 18:24:00,
2013-06-03 13:30:00,91.5,55.7,29.82,South,169,4.0,12.0,30,0.00,,---,0.00,VWS V14.01,2013-06-03 18:30:00,
2013-06-03 13:33:00,91.8,56.0,29.83,SSE,165,8.0,13.0,30,0.00,,---,0.00,VWS V14.01,2013-06-03 18:33:00,
2013-06-03 13:39:00,91.3,55.5,29.82,SSE,166,8.0,14.0,30,0.00,,---,0.00,VWS V14.01,2013-06-03 18:39:00,
2013-06-03 13:45:00,90.6,55.8,29.82,SSW,202,7.0,14.0,31,0.00,,---,0.00,VWS V14.01,2013-06-03 18:45:00,
2013-06-03 13:48:00,91.1,55.4,29.82,South,178,5.0,14.0,30,0.00,,---,0.00,VWS V14.01,2013-06-03 18:48:00,
2013-06-03 13:51:00,91.5,55.7,29.82,SSE,148,9.0,14.0,30,0.00,,---,0.00,VWS V14.01,2013-06-03 18:51:00,
2013-06-03 13:54:00,92.0,57.1,29.82,SSE,167,11.0,14.0,31,0.00,,---,0.00,VWS V14.01,2013-06-03 18:54:00,
2013-06-03 13:58:00,92.2,56.3,29.81,South,184,12.0,14.0,30,0.00,,---,0.00,VWS V14.01,2013-06-03 18:58:00,
2013-06-03 14:01:00,92.2,57.2,29.81,SSE,150,10.0,13.0,31,0.00,,---,0.00,VWS V14.01,2013-06-03 19:01:00,
2013-06-03 14:04:00,92.5,57.5,29.81,SSE,161,14.0,14.0,31,0.00,,---,0.00,VWS V14.01,2013-06-03 19:04:00,
2013-06-03 14:07:00,93.0,56.1,29.81,SSW,207,6.0,14.0,29,0.00,,---,0.00,VWS V14.01,2013-06-03 19:07:00,
2013-06-03 14:13:00,93.1,57.1,29.80,SSE,161,12.0,15.0,30,0.00,,---,0.00,VWS V14.01,2013-06-03 19:13:00,
2013-06-03 14:16:00,92.9,56.9,29.80,SSW,206,14.0,17.0,30,0.00,,---,0.00,VWS V14.01,2013-06-03 19:16:00,
2013-06-03 14:19:00,92.5,57.5,29.80,SSE,162,5.0,17.0,31,0.00,,---,0.00,VWS V14.01,2013-06-03 19:19:00,
2013-06-03 14:22:00,92.8,56.8,29.80,South,171,8.0,17.0,30,0.00,,---,0.00,VWS V14.01,2013-06-03 19:22:00,
2013-06-03 14:25:00,92.8,56.8,29.80,South,172,10.0,17.0,30,0.00,,---,0.00,VWS V14.01,2013-06-03 19:25:00,
2013-06-03 14:28:00,92.8,56.8,29.80,South,184,4.0,17.0,30,0.00,,---,0.00,VWS V14.01,2013-06-03 19:28:00,
2013-06-03 14:31:00,93.2,57.2,29.79,SSE,167,16.0,16.0,30,0.00,,---,0.00,VWS V14.01,2013-06-03 19:31:00,
2013-06-03 14:34:00,93.5,56.5,29.79,SSW,207,5.0,16.0,29,0.00,,---,0.00,VWS V14.01,2013-06-03 19:34:00,
2013-06-03 14:37:00,93.4,57.4,29.79,SE,145,8.0,16.0,30,0.00,,---,0.00,VWS V14.01,2013-06-03 19:37:00,
2013-06-03 14:40:00,93.3,58.2,29.79,SE,140,7.0,16.0,31,0.00,,---,0.00,VWS V14.01,2013-06-03 19:40:00,
2013-06-03 14:49:00,93.7,56.7,29.79,SSW,192,3.0,16.0,29,0.00,,---,0.00,VWS V14.01,2013-06-03 19:49:00,
2013-06-03 14:52:00,94.0,57.9,29.79,SSE,161,6.0,16.0,30,0.00,,---,0.00,VWS V14.01,2013-06-03 19:52:00,
2013-06-03 14:55:00,94.2,56.1,29.79,SE,141,9.0,16.0,28,0.00,,---,0.00,VWS V14.01,2013-06-03 19:55:00,
2013-06-03 14:58:00,94.3,56.2,29.79,SSE,148,7.0,16.0,28,0.00,,---,0.00,VWS V14.01,2013-06-03 19:58:00,
2013-06-03 15:01:00,94.3,56.2,29.79,SSW,213,6.0,13.0,28,0.00,,---,0.00,VWS V14.01,2013-06-03 20:01:00,
2013-06-03 15:04:00,94.4,57.3,29.79,SSW,204,7.0,13.0,29,0.00,,---,0.00,VWS V14.01,2013-06-03 20:04:00,
2013-06-03 15:07:00,94.2,56.1,29.78,SSE,161,6.0,13.0,28,0.00,,---,0.00,VWS V14.01,2013-06-03 20:07:00,
2013-06-03 15:10:00,94.5,57.4,29.79,WSW,253,6.0,13.0,29,0.00,,---,0.00,VWS V14.01,2013-06-03 20:10:00,
2013-06-03 15:13:00,94.5,56.4,29.79,SE,139,6.0,13.0,28,0.00,,---,0.00,VWS V14.01,2013-06-03 20:13:00,
2013-06-03 15:19:00,94.2,57.1,29.78,SSW,203,7.0,13.0,29,0.00,,---,0.00,VWS V14.01,2013-06-03 20:19:00,
2013-06-03 15:22:00,94.0,56.9,29.78,SSE,163,3.0,13.0,29,0.00,,---,0.00,VWS V14.01,2013-06-03 20:22:00,
2013-06-03 15:28:00,94.4,58.2,29.78,SE,140,7.0,13.0,30,0.00,,---,0.00,VWS V14.01,2013-06-03 20:28:00,
2013-06-03 15:31:00,94.6,57.5,29.78,SSW,203,7.0,12.0,29,0.00,,---,0.00,VWS V14.01,2013-06-03 20:31:00,
2013-06-03 15:34:00,94.4,58.2,29.78,SSE,147,3.0,12.0,30,0.00,,---,0.00,VWS V14.01,2013-06-03 20:34:00,
2013-06-03 15:40:00,94.5,58.3,29.77,South,188,9.0,14.0,30,0.00,,---,0.00,VWS V14.01,2013-06-03 20:40:00,
2013-06-03 15:43:00,94.6,58.4,29.77,South,191,7.0,14.0,30,0.00,,---,0.00,VWS V14.01,2013-06-03 20:43:00,
2013-06-03 15:46:00,94.9,57.7,29.77,SSE,167,5.0,14.0,29,0.00,,---,0.00,VWS V14.01,2013-06-03 20:46:00,
2013-06-03 15:49:00,94.6,58.4,29.77,SSE,161,3.0,14.0,30,0.00,,---,0.00,VWS V14.01,2013-06-03 20:49:00,
2013-06-03 15:52:00,94.6,59.3,29.76,SSE,166,12.0,17.0,31,0.00,,---,0.00,VWS V14.01,2013-06-03 20:52:00,
2013-06-03 15:55:00,95.1,58.8,29.77,SSW,194,4.0,17.0,30,0.00,,---,0.00,VWS V14.01,2013-06-03 20:55:00,
2013-06-03 15:58:00,95.2,58.0,29.77,SSE,164,4.0,17.0,29,0.00,,---,0.00,VWS V14.01,2013-06-03 20:58:00,
2013-06-03 15:59:00,95.2,58.0,29.77,SSE,161,5.0,8.0,29,0.00,,---,0.00,VWS V14.01,2013-06-03 20:59:00,
2013-06-03 16:05:00,94.7,58.5,29.76,SE,132,4.0,15.0,30,0.00,,---,0.00,VWS V14.01,2013-06-03 21:05:00,
2013-06-03 16:08:00,94.7,58.5,29.76,SSE,150,6.0,15.0,30,0.00,,---,0.00,VWS V14.01,2013-06-03 21:08:00,
2013-06-03 16:14:00,95.6,58.3,29.76,SSW,192,7.0,15.0,29,0.00,,---,0.00,VWS V14.01,2013-06-03 21:14:00,
2013-06-03 16:20:00,95.4,58.1,29.76,South,188,4.0,15.0,29,0.00,,---,0.00,VWS V14.01,2013-06-03 21:20:00,
2013-06-03 16:26:00,95.5,58.2,29.76,South,180,2.0,15.0,29,0.00,,---,0.00,VWS V14.01,2013-06-03 21:26:00,
2013-06-03 16:28:00,95.3,58.0,29.75,South,172,8.0,15.0,29,0.00,,---,0.00,VWS V14.01,2013-06-03 21:28:00,
2013-06-03 16:29:00,95.3,58.0,29.75,SSE,147,5.0,8.0,29,0.00,,---,0.00,VWS V14.01,2013-06-03 21:29:00,
2013-06-03 16:32:00,95.1,58.8,29.75,SSW,196,4.0,12.0,30,0.00,,---,0.00,VWS V14.01,2013-06-03 21:32:00,
2013-06-03 16:35:00,95.5,58.2,29.75,South,178,7.0,13.0,29,0.00,,---,0.00,VWS V14.01,2013-06-03 21:35:00,
2013-06-03 16:38:00,95.1,57.9,29.76,South,186,2.0,13.0,29,0.00,,---,0.00,VWS V14.01,2013-06-03 21:38:00,
2013-06-03 16:41:00,94.9,59.6,29.76,SSE,152,9.0,13.0,31,0.00,,---,0.00,VWS V14.01,2013-06-03 21:41:00,
2013-06-03 16:44:00,94.6,58.4,29.75,ESE,109,8.0,13.0,30,0.00,,---,0.00,VWS V14.01,2013-06-03 21:44:00,
2013-06-03 16:47:00,94.6,59.3,29.75,SE,143,5.0,13.0,31,0.00,,---,0.00,VWS V14.01,2013-06-03 21:47:00,
2013-06-03 16:50:00,95.0,59.7,29.75,SSE,156,6.0,13.0,31,0.00,,---,0.00,VWS V14.01,2013-06-03 21:50:00,
2013-06-03 16:53:00,95.4,59.1,29.75,SSE,168,7.0,13.0,30,0.00,,---,0.00,VWS V14.01,2013-06-03 21:53:00,
2013-06-03 16:56:00,95.0,58.7,29.75,SE,145,7.0,15.0,30,0.00,,---,0.00,VWS V14.01,2013-06-03 21:56:00,
2013-06-03 16:58:00,94.8,59.5,29.75,SE,143,8.0,15.0,31,0.00,,---,0.00,VWS V14.01,2013-06-03 21:58:00,
2013-06-03 17:02:00,94.9,60.5,29.75,SSW,193,7.0,13.0,32,0.00,,---,0.00,VWS V14.01,2013-06-03 22:02:00,
2013-06-03 17:05:00,94.9,59.6,29.75,South,187,5.0,13.0,31,0.00,,---,0.00,VWS V14.01,2013-06-03 22:05:00,
2013-06-03 17:08:00,95.0,59.7,29.74,SSE,159,8.0,15.0,31,0.00,,---,0.00,VWS V14.01,2013-06-03 22:08:00,
2013-06-03 17:11:00,95.1,59.7,29.74,South,169,5.0,15.0,31,0.00,,---,0.00,VWS V14.01,2013-06-03 22:11:00,
2013-06-03 17:17:00,95.3,60.8,29.74,SSE,163,12.0,15.0,32,0.00,,---,0.00,VWS V14.01,2013-06-03 22:17:00,
2013-06-03 17:23:00,94.6,59.3,29.74,South,173,6.0,16.0,31,0.00,,---,0.00,VWS V14.01,2013-06-03 22:23:00,
2013-06-03 17:26:00,94.4,60.0,29.74,SSE,160,4.0,16.0,32,0.00,,---,0.00,VWS V14.01,2013-06-03 22:26:00,
2013-06-03 17:28:00,94.4,60.0,29.73,SSW,193,7.0,16.0,32,0.00,,---,0.00,VWS V14.01,2013-06-03 22:28:00,
2013-06-03 17:29:00,94.4,60.0,29.74,SSW,195,7.0,13.0,32,0.00,,---,0.00,VWS V14.01,2013-06-03 22:29:00,
2013-06-03 17:35:00,94.3,59.9,29.73,SSE,148,8.0,13.0,32,0.00,,---,0.00,VWS V14.01,2013-06-03 22:35:00,
2013-06-03 17:41:00,94.6,60.2,29.73,SSE,161,4.0,14.0,32,0.00,,---,0.00,VWS V14.01,2013-06-03 22:41:00,
2013-06-03 17:44:00,94.6,60.2,29.73,South,169,6.0,14.0,32,0.00,,---,0.00,VWS V14.01,2013-06-03 22:44:00,
2013-06-03 17:50:00,94.7,60.3,29.73,SSE,161,6.0,14.0,32,0.00,,---,0.00,VWS V14.01,2013-06-03 22:50:00,
2013-06-03 17:53:00,94.7,60.3,29.72,South,173,5.0,14.0,32,0.00,,---,0.00,VWS V14.01,2013-06-03 22:53:00,
2013-06-03 17:56:00,94.4,60.0,29.73,SSW,200,8.0,14.0,32,0.00,,---,0.00,VWS V14.01,2013-06-03 22:56:00,
2013-06-03 17:58:00,94.2,59.8,29.73,South,190,7.0,14.0,32,0.00,,---,0.00,VWS V14.01,2013-06-03 22:58:00,
2013-06-03 18:02:00,93.8,60.4,29.72,South,170,8.0,18.0,33,0.00,,---,0.00,VWS V14.01,2013-06-03 23:02:00,
2013-06-03 18:09:00,93.5,60.1,29.72,SSE,157,7.0,18.0,33,0.00,,---,0.00,VWS V14.01,2013-06-03 23:09:00,
2013-06-03 18:15:00,93.7,60.3,29.72,SSE,148,7.0,18.0,33,0.00,,---,0.00,VWS V14.01,2013-06-03 23:15:00,
2013-06-03 18:18:00,93.6,60.2,29.72,SSE,147,9.0,18.0,33,0.00,,---,0.00,VWS V14.01,2013-06-03 23:18:00,
2013-06-03 18:21:00,93.5,60.1,29.72,SE,143,7.0,18.0,33,0.00,,---,0.00,VWS V14.01,2013-06-03 23:21:00,
2013-06-03 18:27:00,93.1,60.6,29.72,South,185,10.0,18.0,34,0.00,,---,0.00,VWS V14.01,2013-06-03 23:27:00,
2013-06-03 18:28:00,93.0,60.5,29.72,South,169,7.0,18.0,34,0.00,,---,0.00,VWS V14.01,2013-06-03 23:28:00,
2013-06-03 18:30:00,93.0,60.5,29.72,South,180,8.0,13.0,34,0.00,,---,0.00,VWS V14.01,2013-06-03 23:30:00,
2013-06-03 18:33:00,92.9,60.4,29.72,SSE,147,7.0,13.0,34,0.00,,---,0.00,VWS V14.01,2013-06-03 23:33:00,
2013-06-03 18:39:00,92.7,60.2,29.72,SE,143,8.0,14.0,34,0.00,,---,0.00,VWS V14.01,2013-06-03 23:39:00,
2013-06-03 18:42:00,92.6,61.0,29.72,SSE,160,7.0,14.0,35,0.00,,---,0.00,VWS V14.01,2013-06-03 23:42:00,
2013-06-03 18:48:00,92.5,60.9,29.72,SE,127,9.0,14.0,35,0.00,,---,0.00,VWS V14.01,2013-06-03 23:48:00,
2013-06-03 18:54:00,92.3,60.7,29.72,SE,143,9.0,14.0,35,0.00,,---,0.00,VWS V14.01,2013-06-03 23:54:00,
2013-06-03 18:57:00,92.0,60.5,29.72,South,177,9.0,14.0,35,0.00,,---,0.00,VWS V14.01,2013-06-03 23:57:00,
2013-06-03 18:58:00,92.0,60.5,29.72,SE,146,10.0,14.0,35,0.00,,---,0.00,VWS V14.01,2013-06-03 23:58:00,
2013-06-03 19:00:00,91.9,61.2,29.72,South,169,6.0,13.0,36,0.00,,---,0.00,VWS V14.01,2013-06-04 00:00:00,
2013-06-03 19:03:00,91.7,61.0,29.72,SSE,155,9.0,14.0,36,0.00,,---,0.00,VWS V14.01,2013-06-04 00:03:00,
2013-06-03 19:09:00,91.5,61.6,29.72,SSE,161,11.0,14.0,37,0.00,,---,0.00,VWS V14.01,2013-06-04 00:09:00,
2013-06-03 19:12:00,91.3,61.4,29.72,SSE,159,4.0,14.0,37,0.00,,---,0.00,VWS V14.01,2013-06-04 00:12:00,
2013-06-03 19:15:00,91.3,61.4,29.72,SSE,163,9.0,14.0,37,0.00,,---,0.00,VWS V14.01,2013-06-04 00:15:00,
2013-06-03 19:21:00,90.9,61.0,29.72,SSE,147,9.0,16.0,37,0.00,,---,0.00,VWS V14.01,2013-06-04 00:21:00,
2013-06-03 19:24:00,90.8,61.0,29.72,SE,134,6.0,16.0,37,0.00,,---,0.00,VWS V14.01,2013-06-04 00:24:00,
2013-06-03 19:27:00,90.7,61.6,29.72,SE,141,6.0,16.0,38,0.00,,---,0.00,VWS V14.01,2013-06-04 00:27:00,
2013-06-03 19:33:00,90.5,61.5,29.72,SE,140,12.0,15.0,38,0.00,,---,0.00,VWS V14.01,2013-06-04 00:33:00,
2013-06-03 19:36:00,90.3,61.3,29.72,SE,145,6.0,15.0,38,0.00,,---,0.00,VWS V14.01,2013-06-04 00:36:00,
2013-06-03 19:39:00,90.2,61.2,29.72,SE,142,7.0,15.0,38,0.00,,---,0.00,VWS V14.01,2013-06-04 00:39:00,
2013-06-03 19:42:00,90.0,61.0,29.72,SE,146,8.0,15.0,38,0.00,,---,0.00,VWS V14.01,2013-06-04 00:42:00,
2013-06-03 19:48:00,89.6,60.7,29.72,SE,138,5.0,15.0,38,0.00,,---,0.00,VWS V14.01,2013-06-04 00:48:00,
2013-06-03 19:51:00,89.5,61.3,29.72,SE,146,5.0,15.0,39,0.00,,---,0.00,VWS V14.01,2013-06-04 00:51:00,
2013-06-03 19:55:00,89.3,61.1,29.72,SSE,159,8.0,15.0,39,0.00,,---,0.00,VWS V14.01,2013-06-04 00:55:00,
2013-06-03 19:58:00,89.2,60.3,29.72,SSE,150,6.0,15.0,38,0.00,,---,0.00,VWS V14.01,2013-06-04 00:58:00,
2013-06-03 20:01:00,89.0,60.8,29.72,SE,132,9.0,11.0,39,0.00,,---,0.00,VWS V14.01,2013-06-04 01:01:00,
2013-06-03 20:07:00,88.7,61.3,29.72,SSE,161,6.0,11.0,40,0.00,,---,0.00,VWS V14.01,2013-06-04 01:07:00,
2013-06-03 20:10:00,88.5,61.1,29.72,SE,146,6.0,11.0,40,0.00,,---,0.00,VWS V14.01,2013-06-04 01:10:00,
2013-06-03 20:13:00,88.3,60.9,29.72,SSE,153,4.0,11.0,40,0.00,,---,0.00,VWS V14.01,2013-06-04 01:13:00,
2013-06-03 20:16:00,88.1,60.8,29.72,SE,140,5.0,11.0,40,0.00,,---,0.00,VWS V14.01,2013-06-04 01:16:00,
2013-06-03 20:19:00,87.9,60.6,29.72,SE,134,6.0,11.0,40,0.00,,---,0.00,VWS V14.01,2013-06-04 01:19:00,
2013-06-03 20:22:00,87.7,60.4,29.72,SE,138,6.0,14.0,40,0.00,,---,0.00,VWS V14.01,2013-06-04 01:22:00,
2013-06-03 20:28:00,87.3,60.8,29.72,SE,129,6.0,14.0,41,0.00,,---,0.00,VWS V14.01,2013-06-04 01:28:00,
2013-06-03 20:34:00,86.8,60.3,29.72,SE,125,4.0,11.0,41,0.00,,---,0.00,VWS V14.01,2013-06-04 01:34:00,
2013-06-03 20:40:00,86.4,59.9,29.72,SE,136,4.0,11.0,41,0.00,,---,0.00,VWS V14.01,2013-06-04 01:40:00,
2013-06-03 20:46:00,85.9,59.5,29.72,South,169,9.0,11.0,41,0.00,,---,0.00,VWS V14.01,2013-06-04 01:46:00,
2013-06-03 20:52:00,85.6,59.2,29.72,SE,135,4.0,11.0,41,0.00,,---,0.00,VWS V14.01,2013-06-04 01:52:00,
2013-06-03 20:55:00,85.4,59.0,29.73,SE,127,3.0,11.0,41,0.00,,---,0.00,VWS V14.01,2013-06-04 01:55:00,
2013-06-03 20:58:00,85.2,59.5,29.73,SE,137,3.0,11.0,42,0.00,,---,0.00,VWS V14.01,2013-06-04 01:58:00,
2013-06-03 21:04:00,84.7,59.1,29.73,SE,136,3.0,7.0,42,0.00,,---,0.00,VWS V14.01,2013-06-04 02:04:00,
2013-06-03 21:10:00,84.3,59.4,29.73,SSE,148,5.0,9.0,43,0.00,,---,0.00,VWS V14.01,2013-06-04 02:10:00,
2013-06-03 21:16:00,84.0,59.1,29.73,SE,129,6.0,9.0,43,0.00,,---,0.00,VWS V14.01,2013-06-04 02:16:00,
2013-06-03 21:19:00,83.8,58.9,29.73,SSE,147,5.0,10.0,43,0.00,,---,0.00,VWS V14.01,2013-06-04 02:19:00,
2013-06-03 21:22:00,83.8,58.3,29.73,SE,146,8.0,10.0,42,0.00,,---,0.00,VWS V14.01,2013-06-04 02:22:00,
2013-06-03 21:25:00,83.7,58.2,29.73,SE,130,4.0,10.0,42,0.00,,---,0.00,VWS V14.01,2013-06-04 02:25:00,
2013-06-03 21:28:00,83.7,58.2,29.73,SSE,153,7.0,10.0,42,0.00,,---,0.00,VWS V14.01,2013-06-04 02:28:00,
2013-06-03 21:34:00,83.5,58.0,29.73,SSE,148,5.0,11.0,42,0.00,,---,0.00,VWS V14.01,2013-06-04 02:34:00,
2013-06-03 21:41:00,83.2,57.8,29.73,SSE,153,9.0,11.0,42,0.00,,---,0.00,VWS V14.01,2013-06-04 02:41:00,
2013-06-03 21:47:00,83.0,57.6,29.73,SE,145,5.0,11.0,42,0.00,,---,0.00,VWS V14.01,2013-06-04 02:47:00,
2013-06-03 21:50:00,83.0,57.6,29.73,SSE,151,7.0,11.0,42,0.00,,---,0.00,VWS V14.01,2013-06-04 02:50:00,
2013-06-03 21:53:00,82.9,57.5,29.73,SE,135,8.0,11.0,42,0.00,,---,0.00,VWS V14.01,2013-06-04 02:53:00,
2013-06-03 21:56:00,82.9,57.5,29.74,SSE,152,4.0,11.0,42,0.00,,---,0.00,VWS V14.01,2013-06-04 02:56:00,
2013-06-03 21:58:00,82.8,57.4,29.74,SSE,159,3.0,11.0,42,0.00,,---,0.00,VWS V14.01,2013-06-04 02:58:00,
2013-06-03 22:02:00,82.8,57.4,29.74,SSE,150,7.0,10.0,42,0.00,,---,0.00,VWS V14.01,2013-06-04 03:02:00,
2013-06-03 22:04:00,81.1,57.2,29.75,SSE,150,6.0,13.0,44,0.00,,---,0.00,VWS V14.01,2013-06-04 03:04:00,
2013-06-03 22:05:00,82.7,57.3,29.74,SSE,160,8.0,11.0,42,0.00,,---,0.00,VWS V14.01,2013-06-04 03:05:00,
2013-06-03 22:07:00,81.0,57.1,29.75,SSE,150,4.0,13.0,44,0.00,,---,0.00,VWS V14.01,2013-06-04 03:07:00,
2013-06-03 22:08:00,82.7,57.3,29.74,SSE,147,7.0,11.0,42,0.00,,---,0.00,VWS V14.01,2013-06-04 03:08:00,
2013-06-03 22:10:00,80.8,57.5,29.75,SSE,157,7.0,13.0,45,0.00,,---,0.00,VWS V14.01,2013-06-04 03:10:00,
2013-06-03 22:13:00,80.7,57.4,29.75,SSE,156,7.0,13.0,45,0.00,,---,0.00,VWS V14.01,2013-06-04 03:13:00,
2013-06-03 22:14:00,82.7,57.3,29.74,SSE,147,7.0,15.0,42,0.00,,---,0.00,VWS V14.01,2013-06-04 03:14:00,
2013-06-03 22:16:00,80.6,57.3,29.75,SSE,157,10.0,13.0,45,0.00,,---,0.00,VWS V14.01,2013-06-04 03:16:00,
2013-06-03 22:19:00,80.6,57.3,29.75,SSE,158,4.0,13.0,45,0.00,,---,0.00,VWS V14.01,2013-06-04 03:19:00,
2013-06-03 22:20:00,82.4,57.0,29.74,SSE,150,5.0,15.0,42,0.00,,---,0.00,VWS V14.01,2013-06-04 03:20:00,
2013-06-03 22:22:00,80.5,57.2,29.75,SSE,154,7.0,13.0,45,0.00,,---,0.00,VWS V14.01,2013-06-04 03:22:00,
2013-06-03 22:23:00,82.3,56.9,29.74,SE,142,3.0,15.0,42,0.00,,---,0.00,VWS V14.01,2013-06-04 03:23:00,
2013-06-03 22:25:00,80.4,57.1,29.75,South,171,6.0,13.0,45,0.00,,---,0.00,VWS V14.01,2013-06-04 03:25:00,
2013-06-03 22:28:00,82.1,56.8,29.74,SSE,152,6.0,15.0,42,0.00,,---,0.00,VWS V14.01,2013-06-04 03:28:00,
2013-06-03 22:29:00,82.1,56.8,29.74,ESE,115,9.0,10.0,42,0.00,,---,0.00,VWS V14.01,2013-06-04 03:29:00,
2013-06-03 22:30:00,80.2,57.6,29.75,SSE,148,3.0,13.0,46,0.00,,---,0.00,VWS V14.01,2013-06-04 03:30:00,
2013-06-03 22:31:00,80.1,57.5,29.75,SSE,151,5.0,11.0,46,0.00,,---,0.00,VWS V14.01,2013-06-04 03:31:00,
2013-06-03 22:32:00,82.0,57.3,29.74,SSE,159,6.0,11.0,43,0.00,,---,0.00,VWS V14.01,2013-06-04 03:32:00,
2013-06-03 22:34:00,80.0,57.4,29.75,SE,129,3.0,11.0,46,0.00,,---,0.00,VWS V14.01,2013-06-04 03:34:00,
2013-06-03 22:37:00,79.9,57.3,29.75,South,169,8.0,11.0,46,0.00,,---,0.00,VWS V14.01,2013-06-04 03:37:00,
2013-06-03 22:38:00,81.6,57.0,29.74,SE,144,9.0,11.0,43,0.00,,---,0.00,VWS V14.01,2013-06-04 03:38:00,
2013-06-03 22:40:00,79.8,57.8,29.75,SE,139,2.0,11.0,47,0.00,,---,0.00,VWS V14.01,2013-06-04 03:40:00,
2013-06-03 22:41:00,81.5,56.9,29.75,SE,140,5.0,11.0,43,0.00,,---,0.00,VWS V14.01,2013-06-04 03:41:00,
2013-06-03 22:43:00,79.8,57.8,29.75,SE,144,11.0,11.0,47,0.00,,---,0.00,VWS V14.01,2013-06-04 03:43:00,
2013-06-03 22:46:00,79.8,57.8,29.75,SE,145,5.0,11.0,47,0.00,,---,0.00,VWS V14.01,2013-06-04 03:46:00,
2013-06-03 22:47:00,81.2,56.6,29.75,SSE,155,5.0,11.0,43,0.00,,---,0.00,VWS V14.01,2013-06-04 03:47:00,
2013-06-03 22:49:00,79.8,57.8,29.75,SE,146,8.0,11.0,47,0.00,,---,0.00,VWS V14.01,2013-06-04 03:49:00,
2013-06-03 22:50:00,81.2,57.2,29.75,SSE,159,7.0,12.0,44,0.00,,---,0.00,VWS V14.01,2013-06-04 03:50:00,
2013-06-03 22:52:00,79.6,57.6,29.75,SE,144,7.0,11.0,47,0.00,,---,0.00,VWS V14.01,2013-06-04 03:52:00,
2013-06-03 22:53:00,81.3,57.3,29.75,SE,135,8.0,12.0,44,0.00,,---,0.00,VWS V14.01,2013-06-04 03:53:00,
2013-06-03 22:55:00,79.6,58.2,29.75,SE,144,5.0,11.0,48,0.00,,---,0.00,VWS V14.01,2013-06-04 03:55:00,
2013-06-03 22:58:00,81.2,57.2,29.75,SE,136,9.0,14.0,44,0.00,,---,0.00,VWS V14.01,2013-06-04 03:58:00,
2013-06-03 22:59:00,81.2,57.2,29.75,SE,146,6.0,11.0,44,0.00,,---,0.00,VWS V14.01,2013-06-04 03:59:00,
2013-06-03 23:00:00,79.3,57.9,29.75,SE,131,8.0,11.0,48,0.00,,---,0.00,VWS V14.01,2013-06-04 04:00:00,
2013-06-03 23:01:00,79.3,57.9,29.75,SSE,148,7.0,9.0,48,0.00,,---,0.00,VWS V14.01,2013-06-04 04:01:00,
2013-06-03 23:04:00,79.3,58.5,29.75,SSE,166,5.0,11.0,49,0.00,,---,0.00,VWS V14.01,2013-06-04 04:04:00,
2013-06-03 23:07:00,79.2,58.4,29.75,SSE,147,4.0,11.0,49,0.00,,---,0.00,VWS V14.01,2013-06-04 04:07:00,
2013-06-03 23:10:00,79.1,58.3,29.75,SE,146,4.0,11.0,49,0.00,,---,0.00,VWS V14.01,2013-06-04 04:10:00,
2013-06-03 23:13:00,79.1,58.3,29.76,SSE,150,5.0,11.0,49,0.00,,---,0.00,VWS V14.01,2013-06-04 04:13:00,
2013-06-03 23:16:00,79.0,58.2,29.76,SE,142,8.0,11.0,49,0.00,,---,0.00,VWS V14.01,2013-06-04 04:16:00,
2013-06-03 23:19:00,79.0,58.2,29.76,SSE,154,4.0,11.0,49,0.00,,---,0.00,VWS V14.01,2013-06-04 04:19:00,
2013-06-03 23:25:00,78.9,58.7,29.76,South,170,3.0,12.0,50,0.00,,---,0.00,VWS V14.01,2013-06-04 04:25:00,
2013-06-03 23:28:00,78.8,58.6,29.75,SSE,153,2.0,12.0,50,0.00,,---,0.00,VWS V14.01,2013-06-04 04:28:00,
2013-06-03 23:30:00,78.8,58.6,29.76,SSE,158,7.0,12.0,50,0.00,,---,0.00,VWS V14.01,2013-06-04 04:30:00,
2013-06-03 23:31:00,78.8,59.2,29.75,SSE,153,4.0,10.0,51,0.00,,---,0.00,VWS V14.01,2013-06-04 04:31:00,
2013-06-03 23:34:00,78.7,59.1,29.75,SSE,159,6.0,10.0,51,0.00,,---,0.00,VWS V14.01,2013-06-04 04:34:00,
2013-06-03 23:37:00,78.7,59.1,29.76,SSE,154,8.0,12.0,51,0.00,,---,0.00,VWS V14.01,2013-06-04 04:37:00,
2013-06-03 23:40:00,78.7,59.6,29.75,SSE,157,9.0,12.0,52,0.00,,---,0.00,VWS V14.01,2013-06-04 04:40:00,
2013-06-03 23:43:00,78.7,59.6,29.75,SSE,155,3.0,12.0,52,0.00,,---,0.00,VWS V14.01,2013-06-04 04:43:00,
2013-06-03 23:46:00,78.7,60.2,29.75,South,179,7.0,12.0,53,0.00,,---,0.00,VWS V14.01,2013-06-04 04:46:00,
2013-06-03 23:50:00,78.6,60.1,29.75,SSE,150,8.0,12.0,53,0.00,,---,0.00,VWS V14.01,2013-06-04 04:50:00,
2013-06-03 23:53:00,78.7,60.2,29.75,SSE,153,8.0,12.0,53,0.00,,---,0.00,VWS V14.01,2013-06-04 04:53:00,
2013-06-03 23:56:00,78.6,60.6,29.75,SSE,156,8.0,12.0,54,0.00,,---,0.00,VWS V14.01,2013-06-04 04:56:00,
2013-06-03 23:59:00,78.5,60.5,29.75,South,176,4.0,12.0,54,0.00,,---,0.00,VWS V14.01,2013-06-04 04:59:00,